Location: �perlecques
(50.8057°N, 2.1521°E)
Time: 21:08:09
(UTC+00:00)

Tiros 1 - Pass Details

Date: 09 August 2021
Orbit: 630 x 663 km, 48.4° (Epoch: 28 September)

Event Time Altitude Azimuth Distance (km) Brightness Sun altitude
Rises 14:41:52 0° 216° (SW) 2,985 11.3 41.8°
Reaches altitude 10° 14:44:30 10° 204° (SSW) 2,075 10.6 41.5°
Maximum altitude 14:48:28 26° 148° (SSE) 1,290 9.0 40.9°
Drops below altitude 10° 14:52:26 10° 92° (E) 2,075 9.5 40.4°
Sets 14:55:04 0° 80° (E) 2,986 10.1 40.0°
